Location: Villingen
(48.0639°N, 8.4609°E)
Time: 05:11:02
(UTC+01:00)

ISS - Pass Details

Date: 15 November 2017
Orbit: 402 x 407 km, 51.6° (Epoch: 21 November)

Event Time Altitude Azimuth Distance (km) Brightness Sun altitude
Exits shadow 04:55:36 25° 105° (ESE) 867 -1.5 -26.1°
Drops below altitude 10° 04:57:04 10° 108° (ESE) 1,453 -0.1 -25.9°
Sets 04:59:09 0° 110° (ESE) 2,310 1.1 -25.5°
